Content
SEND FEEDBACK

Daily
Averages
Monthly
Summary
United States of America

BEDFORD PARK, ILLINOIS


Home > North America > United States > Illinois
Elevation: 623 feet     Latitude: 41 46N     Longitude: 087 45W

WEATHER
 
SELECT A DAY
Number of Records: 189,476;   Date Range: 1/1/95 - 8/30/14
 
SHARE

PRINT THIS DATA

[ ← Previous Day ]
WEATHER ALMANAC - JANUARY 3, 2013
[ Next Day → ]
[ °C ]   °F
Weather ElementAverageHighLow
Temperature26.6 °F30.2 °F (8:40 am)19 °F (11:51 pm)
Dewpoint18.1 °F23 °F (7:51 am)12.9 °F (11:51 pm)
Humidity70.6 %78 % (6:51 am)63 % (4:51 pm)
Barometer30.21 in30.32 in (8:51 pm)30.09 in (4:57 am)
Wind Speed11.1 mph13.8 mph (8:51 am)
Wind Gust19.6 mph (11:51 pm)
Weather ElementAverage
Visibility9.2 mi
Wind DirectionWSW (259.2 °)

Weather ElementTotal
Precipitation---
Heating Degree Days40.4 (Base 65)
Averaged from 26 records on January 3, 2013
WEATHER CONDITIONS BREAKOUT
WIND DIRECTION BREAKOUT
WEATHER BY HOUR - JANUARY 3, 2013
[ °C ]   °F
Local TimeTemperatureDewpointHumidityBarometerVisibilityWind DirectionWind SpeedGust SpeedPrecipitationEventsConditions
1:51 AM24.1 °F14.0 °F65 %30.15 in9.0 miSW (230°)6.9 mph0.00 inSnowLight Snow
2:15 AM24.8 °F14.0 °F64 %30.10 in10.0 miSW (220°)8.1 mph0.00 inOvercast
2:51 AM25.0 °F16.0 °F69 %30.15 in9.0 miWSW (240°)10.4 mph0.00 inSnowLight Snow
3:51 AM26.1 °F18.0 °F71 %30.14 in10.0 miWSW (250°)11.5 mph0.00 inMostly Cloudy
4:51 AM26.1 °F19.0 °F75 %30.14 in10.0 miWSW (250°)10.4 mphOvercast
4:57 AM26.6 °F19.4 °F74 %30.09 in10.0 miWSW (240°)10.4 mphOvercast
5:51 AM27.0 °F19.9 °F75 %30.16 in7.0 miWSW (240°)10.4 mphOvercast
6:51 AM28.0 °F21.9 °F78 %30.17 in8.0 miWSW (250°)11.5 mphOvercast
7:51 AM28.9 °F23.0 °F78 %30.18 in5.0 miWest (270°)8.1 mphHaze
8:40 AM30.2 °F23.0 °F75 %30.14 in6.0 miWest (260°)12.7 mphHaze
8:51 AM30.0 °F23.0 °F75 %30.19 in7.0 miWest (280°)13.8 mphOvercast
9:51 AM30.0 °F21.9 °F72 %30.22 in8.0 miWest (280°)12.7 mphOvercast
10:51 AM30.0 °F19.0 °F64 %30.22 in10.0 miWest (280°)10.4 mphOvercast
11:51 AM28.9 °F19.9 °F69 %30.21 in10.0 miWest (270°)10.4 mphOvercast
12:51 PM28.0 °F19.0 °F69 %30.22 in10.0 miWest (280°)12.7 mphOvercast
1:51 PM28.9 °F19.0 °F67 %30.22 in9.0 miWest (270°)10.4 mph0.00 inSnowLight Snow
2:51 PM28.4 °F19.4 °F69 %30.19 in10.0 miWest (260°)11.5 mphSnowLight Snow
3:51 PM28.9 °F18.0 °F64 %30.25 in10.0 miWest (260°)11.5 mph0.00 inOvercast
4:51 PM28.0 °F17.1 °F63 %30.27 in10.0 miWest (280°)13.8 mphOvercast
5:51 PM28.0 °F17.1 °F63 %30.28 in10.0 miWSW (250°)13.8 mphOvercast
6:51 PM27.0 °F17.1 °F66 %30.29 in10.0 miWest (280°)11.5 mph18.4 mphOvercast
7:51 PM26.1 °F16.0 °F66 %30.30 in10.0 miWest (280°)10.4 mph0.00 inMostly Cloudy
8:51 PM23.0 °F15.1 °F72 %30.32 in10.0 miWest (260°)12.7 mph18.4 mphClear
9:51 PM21.0 °F15.1 °F78 %30.31 in10.0 miWSW (250°)11.5 mphClear
10:51 PM19.9 °F14.0 °F78 %30.31 in10.0 miWSW (250°)9.2 mphClear
11:51 PM19.0 °F12.9 °F77 %30.30 in10.0 miWest (260°)11.5 mph19.6 mphClear
Hourly data recorded from KMDW, located miles away from Bedford Park, Illinois







STORIES FROM OUR PARTNERS